107P/(4015) Wilson-Harrington (1996)

Japanese version
Home page
Total 6,336 html files since Dec. 4, 1995
Updated on July 19, 2005

---------------------------------------------------------------------

* Profile

* Orbital Elements

   The following improved orbital elements, by Kenji Muraoka, are 
  from 122 observations 1949 to 1997, perturbations by 9 Plantes, 
  Moon and 5 minor planets were taken into account. 
   The mean residual is +/- 0.79 arc seconds.

      Epoch  =  1996 Dec. 23.0  TT       JDT = 2450440.5
          T  =  1996 Dec.  6.33104       +/- 0.00002 (m.e.) TT
       Peri. =   90.88933                +/- 0.00026
       Node  =  270.96367                +/- 0.00025   (2000.0)
       Incl. =    2.78400                +/- 0.00001
          q  =    1.0003117              +/- 0.0000002 AU
          e  =    0.6215680              +/- 0.0000001
          a  =    2.6433062              +/- 0.0000003 AU
          n  =    0.22934161             +/- 0.00000004
          P  =    4.298                  +/- 0.0000008  years

* Finding Charts

* 1996 May 7 - 1997 Jan. 22
* 1997 Jan. 2 - 1997 July 1

* Magnitudes Graph

        H =16.0  G = 0.15

---------------------------------------------------------------------

The orbital elements are calculated by Kenji Muraoka.
The charts are made with StellaNavigator Ver.2.0 for Windows (AstroArts / ASCII).
The magnitudes graphs are made with Comet for Windows.

---------------------------------------------------------------------

Copyright(C) 1995-2008 Seiichi Yoshida (comet@aerith.net). All rights reserved.